owner,sensor,date,latitude,longitude,vertical_datum,sea_water_practical_salinity,qcFlag 
DISL,ioos:station:DISL:MBLA:1,2019-01-01T00:00:00Z,30.4367,-88.0117,4.1,17.6,11111222 
DISL,ioos:station:DISL:MBLA:1,2019-01-01T00:30:00Z,30.4367,-88.0117,4.1,17.9,11111222 
DISL,ioos:station:DISL:MBLA:1,2019-01-01T01:00:00Z,30.4367,-88.0117,4.1,18.0,11111222 
DISL,ioos:station:DISL:MBLA:1,2019-01-01T01:30:00Z,30.4367,-88.0117,4.1,16.5,11111222 
DISL,ioos:station:DISL:MBLA:1,2019-01-01T02:00:00Z,30.4367,-88.0117,4.1,17.8,11111222 
DISL,ioos:station:DISL:MBLA:1,2019-01-01T02:30:00Z,30.4367,-88.0117,4.1,18.2,11111222 
DISL,ioos:station:DISL:MBLA:1,2019-01-01T03:00:00Z,30.4367,-88.0117,4.1,18.4,11111222 
DISL,ioos:station:DISL:MBLA:1,2019-01-01T03:30:00Z,30.4367,-88.0117,4.1,18.0,11111222 
DISL,ioos:station:DISL:MBLA:1,2019-01-01T04:00:00Z,30.4367,-88.0117,4.0,16.0,11111222 
DISL,ioos:station:DISL:MBLA:1,2019-01-01T04:30:00Z,30.4367,-88.0117,4.0,15.3,11111222 
DISL,ioos:station:DISL:MBLA:1,2019-01-01T05:00:00Z,30.4367,-88.0117,4.0,15.2,11111222 
DISL,ioos:station:DISL:MBLA:1,2019-01-01T06:30:00Z,30.4367,-88.0117,3.862,14.94,1111122 
DISL,ioos:station:DISL:MBLA:1,2019-01-01T07:00:00Z,30.4367,-88.0117,3.8,14.4,11111222 
DISL,ioos:station:DISL:MBLA:1,2019-01-01T07:30:00Z,30.4367,-88.0117,3.789,13.17,1111122 
DISL,ioos:station:DISL:MBLA:1,2019-01-01T08:00:00Z,30.4367,-88.0117,3.8,13.0,11111222 
DISL,ioos:station:DISL:MBLA:1,2019-01-01T08:30:00Z,30.4367,-88.0117,3.729,12.74,1111122 
DISL,ioos:station:DISL:MBLA:1,2019-01-01T09:00:00Z,30.4367,-88.0117,3.7,11.6,11111222 
DISL,ioos:station:DISL:MBLA:1,2019-01-01T09:30:00Z,30.4367,-88.0117,3.685,11.16,1111122 
DISL,ioos:station:DISL:MBLA:1,2019-01-01T10:00:00Z,30.4367,-88.0117,3.7,10.9,11111222 
DISL,ioos:station:DISL:MBLA:1,2019-01-01T10:30:00Z,30.4367,-88.0117,3.653,10.66,1111122 
DISL,ioos:station:DISL:MBLA:1,2019-01-01T11:00:00Z,30.4367,-88.0117,3.6,10.4,11111222 
DISL,ioos:station:DISL:MBLA:1,2019-01-01T11:30:00Z,30.4367,-88.0117,3.615,11.13,1111122 
DISL,ioos:station:DISL:MBLA:1,2019-01-01T12:00:00Z,30.4367,-88.0117,3.6,9.8,11111222 
DISL,ioos:station:DISL:MBLA:1,2019-01-01T12:30:00Z,30.4367,-88.0117,3.603,9.89,1111122 
DISL,ioos:station:DISL:MBLA:1,2019-01-01T13:00:00Z,30.4367,-88.0117,3.6,9.4,11111222 
DISL,ioos:station:DISL:MBLA:1,2019-01-01T13:30:00Z,30.4367,-88.0117,3.6,10.5,1111122 
DISL,ioos:station:DISL:MBLA:1,2019-01-01T14:00:00Z,30.4367,-88.0117,3.6,11.0,11111222 
DISL,ioos:station:DISL:MBLA:1,2019-01-01T14:30:00Z,30.4367,-88.0117,3.622,13.03,1111122 
DISL,ioos:station:DISL:MBLA:1,2019-01-01T15:00:00Z,30.4367,-88.0117,3.6,13.1,11111222 
DISL,ioos:station:DISL:MBLA:1,2019-01-01T15:30:00Z,30.4367,-88.0117,3.654,13.29,1111122 
DISL,ioos:station:DISL:MBLA:1,2019-01-01T16:00:00Z,30.4367,-88.0117,3.7,15.0,11111222 
DISL,ioos:station:DISL:MBLA:1,2019-01-01T16:30:00Z,30.4367,-88.0117,3.694,15.77,1111122 
DISL,ioos:station:DISL:MBLA:1,2019-01-01T17:00:00Z,30.4367,-88.0117,3.7,15.7,11111222 
DISL,ioos:station:DISL:MBLA:1,2019-01-01T17:30:00Z,30.4367,-88.0117,3.723,15.69,1111122 
DISL,ioos:station:DISL:MBLA:1,2019-01-01T18:00:00Z,30.4367,-88.0117,3.7,15.8,11111222 
DISL,ioos:station:DISL:MBLA:1,2019-01-01T18:30:00Z,30.4367,-88.0117,3.753,16.06,1111122 
DISL,ioos:station:DISL:MBLA:1,2019-01-01T19:00:00Z,30.4367,-88.0117,3.8,15.3,11111222 
DISL,ioos:station:DISL:MBLA:1,2019-01-01T19:30:00Z,30.4367,-88.0117,3.793,15.59,1111122 
DISL,ioos:station:DISL:MBLA:1,2019-01-01T20:00:00Z,30.4367,-88.0117,3.8,14.2,11111222 
DISL,ioos:station:DISL:MBLA:1,2019-01-01T20:30:00Z,30.4367,-88.0117,3.831,13.83,1111122 
DISL,ioos:station:DISL:MBLA:1,2019-01-01T21:00:00Z,30.4367,-88.0117,3.9,14.0,11111222 
DISL,ioos:station:DISL:MBLA:1,2019-01-01T21:30:00Z,30.4367,-88.0117,3.875,13.93,1111122 
DISL,ioos:station:DISL:MBLA:1,2019-01-01T22:00:00Z,30.4367,-88.0117,3.9,13.7,11111222 
DISL,ioos:station:DISL:MBLA:1,2019-01-01T22:30:00Z,30.4367,-88.0117,3.916,13.4,1111122 
DISL,ioos:station:DISL:MBLA:1,2019-01-01T23:00:00Z,30.4367,-88.0117,3.9,16.9,11111222 
DISL,ioos:station:DISL:MBLA:1,2019-01-01T23:30:00Z,30.4367,-88.0117,3.934,16.46,1111122 
DISL,ioos:station:DISL:MBLA:1,2019-01-02T00:00:00Z,30.4367,-88.0117,3.9,16.8,11111222 
DISL,ioos:station:DISL:MBLA:1,2019-01-02T00:30:00Z,30.4367,-88.0117,3.954,16.35,1111122 
DISL,ioos:station:DISL:MBLA:1,2019-01-02T01:00:00Z,30.4367,-88.0117,4.0,16.7,11111222 
DISL,ioos:station:DISL:MBLA:1,2019-01-02T01:30:00Z,30.4367,-88.0117,3.947,16.94,1111122 
DISL,ioos:station:DISL:MBLA:1,2019-01-02T02:00:00Z,30.4367,-88.0117,3.9,17.7,11111222 
DISL,ioos:station:DISL:MBLA:1,2019-01-02T02:30:00Z,30.4367,-88.0117,3.93,17.12,1111122 
DISL,ioos:station:DISL:MBLA:1,2019-01-02T03:00:00Z,30.4367,-88.0117,3.9,16.9,11111222 
DISL,ioos:station:DISL:MBLA:1,2019-01-02T03:30:00Z,30.4367,-88.0117,3.9,18.09,1111122 
DISL,ioos:station:DISL:MBLA:1,2019-01-02T04:00:00Z,30.4367,-88.0117,3.9,17.8,11111222 
DISL,ioos:station:DISL:MBLA:1,2019-01-02T04:30:00Z,30.4367,-88.0117,3.857,17.46,1111122 
DISL,ioos:station:DISL:MBLA:1,2019-01-02T05:00:00Z,30.4367,-88.0117,3.8,16.9,11111222 
DISL,ioos:station:DISL:MBLA:1,2019-01-02T05:30:00Z,30.4367,-88.0117,3.789,16.87,1111122 
DISL,ioos:station:DISL:MBLA:1,2019-01-02T06:00:00Z,30.4367,-88.0117,3.8,17.4,11111222 
DISL,ioos:station:DISL:MBLA:1,2019-01-02T06:30:00Z,30.4367,-88.0117,3.717,18.49,1111122 
DISL,ioos:station:DISL:MBLA:1,2019-01-02T07:00:00Z,30.4367,-88.0117,3.7,18.5,11111222 
DISL,ioos:station:DISL:MBLA:1,2019-01-02T07:30:00Z,30.4367,-88.0117,3.657,17.68,1111122 
DISL,ioos:station:DISL:MBLA:1,2019-01-02T08:00:00Z,30.4367,-88.0117,3.6,18.0,11111222 
DISL,ioos:station:DISL:MBLA:1,2019-01-02T08:30:00Z,30.4367,-88.0117,3.598,18.1,1111122 
DISL,ioos:station:DISL:MBLA:1,2019-01-02T09:00:00Z,30.4367,-88.0117,3.6,17.5,11111222 
DISL,ioos:station:DISL:MBLA:1,2019-01-02T09:30:00Z,30.4367,-88.0117,3.543,17.2,1111122 
DISL,ioos:station:DISL:MBLA:1,2019-01-02T10:00:00Z,30.4367,-88.0117,3.5,15.2,11111222 
DISL,ioos:station:DISL:MBLA:1,2019-01-02T10:30:00Z,30.4367,-88.0117,3.499,15.13,1111122 
DISL,ioos:station:DISL:MBLA:1,2019-01-02T11:00:00Z,30.4367,-88.0117,3.5,15.2,11111222 
DISL,ioos:station:DISL:MBLA:1,2019-01-02T11:30:00Z,30.4367,-88.0117,3.466,14.95,1111122 
DISL,ioos:station:DISL:MBLA:1,2019-01-02T12:30:00Z,30.4367,-88.0117,3.456,18.2,1111122 
DISL,ioos:station:DISL:MBLA:1,2019-01-02T13:30:00Z,30.4367,-88.0117,3.459,17.8,1111122 
DISL,ioos:station:DISL:MBLA:1,2019-01-02T14:30:00Z,30.4367,-88.0117,3.468,18.44,1111122 
DISL,ioos:station:DISL:MBLA:1,2019-01-02T15:30:00Z,30.4367,-88.0117,3.514,18.66,1111122 
DISL,ioos:station:DISL:MBLA:1,2019-01-02T16:30:00Z,30.4367,-88.0117,3.562,18.1,1111122 
DISL,ioos:station:DISL:MBLA:1,2019-01-02T17:30:00Z,30.4367,-88.0117,3.618,17.1,1111122 
DISL,ioos:station:DISL:MBLA:1,2019-01-02T18:30:00Z,30.4367,-88.0117,3.666,16.45,1111122 
DISL,ioos:station:DISL:MBLA:1,2019-01-02T19:30:00Z,30.4367,-88.0117,3.727,14.24,1111122 
DISL,ioos:station:DISL:MBLA:1,2019-01-02T20:00:00Z,30.4367,-88.0117,3.8,15.6,11111222 
DISL,ioos:station:DISL:MBLA:1,2019-01-02T20:30:00Z,30.4367,-88.0117,3.79,15.85,1111122 
DISL,ioos:station:DISL:MBLA:1,2019-01-02T21:00:00Z,30.4367,-88.0117,3.8,16.4,11111222 
DISL,ioos:station:DISL:MBLA:1,2019-01-02T21:30:00Z,30.4367,-88.0117,3.85,17.08,1111122 
DISL,ioos:station:DISL:MBLA:1,2019-01-02T22:00:00Z,30.4367,-88.0117,3.9,20.2,11111222 
DISL,ioos:station:DISL:MBLA:1,2019-01-02T22:30:00Z,30.4367,-88.0117,3.905,20.47,1111122 
DISL,ioos:station:DISL:MBLA:1,2019-01-02T23:00:00Z,30.4367,-88.0117,3.9,20.6,11111222 
DISL,ioos:station:DISL:MBLA:1,2019-01-02T23:30:00Z,30.4367,-88.0117,3.957,20.29,1111122 
DISL,ioos:station:DISL:MBLA:1,2019-01-03T00:00:00Z,30.4367,-88.0117,4.0,21.3,11111222 
DISL,ioos:station:DISL:MBLA:1,2019-01-03T00:30:00Z,30.4367,-88.0117,3.998,21.45,1111122 
DISL,ioos:station:DISL:MBLA:1,2019-01-03T01:00:00Z,30.4367,-88.0117,4.0,21.6,11111222 
DISL,ioos:station:DISL:MBLA:1,2019-01-03T01:30:00Z,30.4367,-88.0117,4.038,21.92,1111122 
DISL,ioos:station:DISL:MBLA:1,2019-01-03T02:00:00Z,30.4367,-88.0117,4.0,21.6,11111222 
DISL,ioos:station:DISL:MBLA:1,2019-01-03T02:30:00Z,30.4367,-88.0117,4.041,21.96,1111122 
DISL,ioos:station:DISL:MBLA:1,2019-01-03T03:00:00Z,30.4367,-88.0117,4.0,21.0,11111222 
DISL,ioos:station:DISL:MBLA:1,2019-01-03T03:30:00Z,30.4367,-88.0117,4.03,20.08,1111122 
DISL,ioos:station:DISL:MBLA:1,2019-01-03T04:00:00Z,30.4367,-88.0117,4.0,20.5,11111222 
DISL,ioos:station:DISL:MBLA:1,2019-01-03T04:30:00Z,30.4367,-88.0117,4.0,20.35,1111122 
DISL,ioos:station:DISL:MBLA:1,2019-01-03T05:00:00Z,30.4367,-88.0117,4.0,20.0,11111222 
DISL,ioos:station:DISL:MBLA:1,2019-01-03T05:30:00Z,30.4367,-88.0117,3.948,18.82,1111122 
DISL,ioos:station:DISL:MBLA:1,2019-01-03T06:00:00Z,30.4367,-88.0117,3.9,18.5,11111222 
DISL,ioos:station:DISL:MBLA:1,2019-01-03T06:30:00Z,30.4367,-88.0117,3.883,17.68,1111122 
DISL,ioos:station:DISL:MBLA:1,2019-01-03T07:00:00Z,30.4367,-88.0117,3.9,18.3,11111222 
DISL,ioos:station:DISL:MBLA:1,2019-01-03T07:30:00Z,30.4367,-88.0117,3.818,14.91,1111122 
DISL,ioos:station:DISL:MBLA:1,2019-01-03T08:00:00Z,30.4367,-88.0117,3.8,14.8,11111222 
DISL,ioos:station:DISL:MBLA:1,2019-01-03T08:30:00Z,30.4367,-88.0117,3.745,13.08,1111122 
DISL,ioos:station:DISL:MBLA:1,2019-01-03T09:00:00Z,30.4367,-88.0117,3.7,12.9,11111222 
DISL,ioos:station:DISL:MBLA:1,2019-01-03T09:30:00Z,30.4367,-88.0117,3.685,10.36,1111122 
DISL,ioos:station:DISL:MBLA:1,2019-01-03T10:00:00Z,30.4367,-88.0117,3.7,13.1,11111222 
DISL,ioos:station:DISL:MBLA:1,2019-01-03T10:30:00Z,30.4367,-88.0117,3.626,10.94,1111122 
DISL,ioos:station:DISL:MBLA:1,2019-01-03T11:00:00Z,30.4367,-88.0117,3.6,15.2,11111222 
DISL,ioos:station:DISL:MBLA:1,2019-01-03T11:30:00Z,30.4367,-88.0117,3.557,14.72,1111122 
DISL,ioos:station:DISL:MBLA:1,2019-01-03T12:00:00Z,30.4367,-88.0117,3.5,16.7,11111222 
DISL,ioos:station:DISL:MBLA:1,2019-01-03T12:30:00Z,30.4367,-88.0117,3.486,14.33,1111122 
DISL,ioos:station:DISL:MBLA:1,2019-01-03T13:00:00Z,30.4367,-88.0117,3.5,12.4,11111222 
DISL,ioos:station:DISL:MBLA:1,2019-01-03T13:30:00Z,30.4367,-88.0117,3.459,10.8,1111122 
DISL,ioos:station:DISL:MBLA:1,2019-01-03T14:00:00Z,30.4367,-88.0117,3.4,15.7,11111222 
DISL,ioos:station:DISL:MBLA:1,2019-01-03T14:30:00Z,30.4367,-88.0117,3.41,14.6,1111122 
DISL,ioos:station:DISL:MBLA:1,2019-01-03T15:00:00Z,30.4367,-88.0117,3.4,15.9,11111222 
DISL,ioos:station:DISL:MBLA:1,2019-01-03T15:30:00Z,30.4367,-88.0117,3.424,13.05,1111122 
DISL,ioos:station:DISL:MBLA:1,2019-01-03T16:00:00Z,30.4367,-88.0117,3.4,16.0,11111222 
DISL,ioos:station:DISL:MBLA:1,2019-01-03T16:30:00Z,30.4367,-88.0117,3.422,16.69,1111122 
DISL,ioos:station:DISL:MBLA:1,2019-01-03T17:00:00Z,30.4367,-88.0117,3.5,7.0,11111222 
DISL,ioos:station:DISL:MBLA:1,2019-01-03T17:30:00Z,30.4367,-88.0117,3.465,15.7,1111122 
DISL,ioos:station:DISL:MBLA:1,2019-01-03T18:00:00Z,30.4367,-88.0117,3.5,16.3,11111222 
DISL,ioos:station:DISL:MBLA:1,2019-01-03T18:30:00Z,30.4367,-88.0117,3.564,16.81,1111122 
DISL,ioos:station:DISL:MBLA:1,2019-01-03T19:00:00Z,30.4367,-88.0117,3.6,17.0,11111222 
DISL,ioos:station:DISL:MBLA:1,2019-01-03T19:30:00Z,30.4367,-88.0117,3.651,12.62,1111122 
DISL,ioos:station:DISL:MBLA:1,2019-01-03T20:00:00Z,30.4367,-88.0117,3.7,16.6,11111222 
DISL,ioos:station:DISL:MBLA:1,2019-01-03T20:30:00Z,30.4367,-88.0117,3.736,15.21,1111122 
DISL,ioos:station:DISL:MBLA:1,2019-01-03T21:00:00Z,30.4367,-88.0117,3.8,15.3,11111222 
DISL,ioos:station:DISL:MBLA:1,2019-01-03T21:30:00Z,30.4367,-88.0117,3.818,14.42,1111122 
DISL,ioos:station:DISL:MBLA:1,2019-01-03T22:00:00Z,30.4367,-88.0117,3.9,14.7,11111222 
DISL,ioos:station:DISL:MBLA:1,2019-01-03T22:30:00Z,30.4367,-88.0117,3.895,15.0,1111122 
DISL,ioos:station:DISL:MBLA:1,2019-01-03T23:00:00Z,30.4367,-88.0117,3.9,15.1,11111222 
DISL,ioos:station:DISL:MBLA:1,2019-01-03T23:30:00Z,30.4367,-88.0117,3.965,14.84,1111122 
DISL,ioos:station:DISL:MBLA:1,2019-01-04T00:00:00Z,30.4367,-88.0117,4.0,15.3,11111222 
DISL,ioos:station:DISL:MBLA:1,2019-01-04T00:30:00Z,30.4367,-88.0117,4.018,16.19,1111122 
DISL,ioos:station:DISL:MBLA:1,2019-01-04T01:00:00Z,30.4367,-88.0117,4.1,18.4,11111222 
DISL,ioos:station:DISL:MBLA:1,2019-01-04T01:30:00Z,30.4367,-88.0117,4.08,17.84,1111122 
DISL,ioos:station:DISL:MBLA:1,2019-01-04T02:00:00Z,30.4367,-88.0117,4.1,19.6,11111222 
DISL,ioos:station:DISL:MBLA:1,2019-01-04T02:30:00Z,30.4367,-88.0117,4.111,18.34,1111122 
DISL,ioos:station:DISL:MBLA:1,2019-01-04T03:00:00Z,30.4367,-88.0117,4.1,19.1,11111222 
DISL,ioos:station:DISL:MBLA:1,2019-01-04T03:30:00Z,30.4367,-88.0117,4.124,18.83,1111122 
DISL,ioos:station:DISL:MBLA:1,2019-01-04T04:00:00Z,30.4367,-88.0117,4.1,19.1,11111222 
DISL,ioos:station:DISL:MBLA:1,2019-01-04T04:30:00Z,30.4367,-88.0117,4.105,19.73,1111122 
DISL,ioos:station:DISL:MBLA:1,2019-01-04T05:00:00Z,30.4367,-88.0117,4.1,19.6,11111222 
DISL,ioos:station:DISL:MBLA:1,2019-01-04T05:30:00Z,30.4367,-88.0117,4.105,19.74,1111122 
DISL,ioos:station:DISL:MBLA:1,2019-01-04T06:00:00Z,30.4367,-88.0117,4.1,19.4,11111222 
DISL,ioos:station:DISL:MBLA:1,2019-01-04T06:30:00Z,30.4367,-88.0117,4.143,16.27,1111122 
DISL,ioos:station:DISL:MBLA:1,2019-01-04T07:00:00Z,30.4367,-88.0117,4.1,16.3,11111222 
DISL,ioos:station:DISL:MBLA:1,2019-01-04T07:30:00Z,30.4367,-88.0117,4.133,16.25,1111122 
DISL,ioos:station:DISL:MBLA:1,2019-01-04T08:00:00Z,30.4367,-88.0117,4.1,14.5,11111222 
DISL,ioos:station:DISL:MBLA:1,2019-01-04T08:30:00Z,30.4367,-88.0117,4.059,14.71,1111122 
DISL,ioos:station:DISL:MBLA:1,2019-01-04T09:00:00Z,30.4367,-88.0117,4.1,13.6,11111222 
DISL,ioos:station:DISL:MBLA:1,2019-01-04T09:30:00Z,30.4367,-88.0117,4.04,12.89,1111122 
DISL,ioos:station:DISL:MBLA:1,2019-01-04T10:00:00Z,30.4367,-88.0117,4.1,8.8,11111222 
DISL,ioos:station:DISL:MBLA:1,2019-01-04T10:30:00Z,30.4367,-88.0117,3.913,6.64,1111122 
DISL,ioos:station:DISL:MBLA:1,2019-01-04T11:00:00Z,30.4367,-88.0117,3.9,4.9,11111222 
DISL,ioos:station:DISL:MBLA:1,2019-01-04T11:30:00Z,30.4367,-88.0117,3.898,7.64,1111122 
DISL,ioos:station:DISL:MBLA:1,2019-01-04T12:00:00Z,30.4367,-88.0117,3.9,7.0,11111222 
DISL,ioos:station:DISL:MBLA:1,2019-01-04T12:30:00Z,30.4367,-88.0117,3.833,4.93,1111122 
DISL,ioos:station:DISL:MBLA:1,2019-01-04T13:00:00Z,30.4367,-88.0117,3.8,5.5,11111222 
DISL,ioos:station:DISL:MBLA:1,2019-01-04T13:30:00Z,30.4367,-88.0117,3.827,4.42,1111122 
DISL,ioos:station:DISL:MBLA:1,2019-01-04T14:00:00Z,30.4367,-88.0117,3.8,4.9,11111222 
DISL,ioos:station:DISL:MBLA:1,2019-01-04T14:30:00Z,30.4367,-88.0117,3.761,3.62,1111122 
DISL,ioos:station:DISL:MBLA:1,2019-01-04T15:00:00Z,30.4367,-88.0117,3.7,3.7,11111222 
DISL,ioos:station:DISL:MBLA:1,2019-01-04T15:30:00Z,30.4367,-88.0117,3.724,4.75,1111122 
DISL,ioos:station:DISL:MBLA:1,2019-01-04T16:00:00Z,30.4367,-88.0117,3.8,4.7,11111222 
DISL,ioos:station:DISL:MBLA:1,2019-01-04T16:30:00Z,30.4367,-88.0117,3.724,2.48,1111122 
DISL,ioos:station:DISL:MBLA:1,2019-01-04T17:00:00Z,30.4367,-88.0117,3.7,2.2,11111222 
DISL,ioos:station:DISL:MBLA:1,2019-01-04T17:30:00Z,30.4367,-88.0117,3.688,2.3,1111122 
DISL,ioos:station:DISL:MBLA:1,2019-01-04T18:00:00Z,30.4367,-88.0117,3.7,2.1,11111222 
DISL,ioos:station:DISL:MBLA:1,2019-01-04T18:30:00Z,30.4367,-88.0117,3.706,2.44,1111122 
DISL,ioos:station:DISL:MBLA:1,2019-01-04T19:00:00Z,30.4367,-88.0117,3.7,2.6,11111222 
DISL,ioos:station:DISL:MBLA:1,2019-01-04T19:30:00Z,30.4367,-88.0117,3.754,2.74,1111122 
DISL,ioos:station:DISL:MBLA:1,2019-01-04T20:00:00Z,30.4367,-88.0117,3.8,3.4,11111222 
DISL,ioos:station:DISL:MBLA:1,2019-01-04T20:30:00Z,30.4367,-88.0117,3.754,3.15,1111122 
DISL,ioos:station:DISL:MBLA:1,2019-01-04T21:00:00Z,30.4367,-88.0117,3.8,2.8,11111222 
DISL,ioos:station:DISL:MBLA:1,2019-01-04T21:30:00Z,30.4367,-88.0117,3.771,2.52,1111122 
DISL,ioos:station:DISL:MBLA:1,2019-01-04T22:00:00Z,30.4367,-88.0117,3.8,2.9,11111222 
DISL,ioos:station:DISL:MBLA:1,2019-01-04T22:30:00Z,30.4367,-88.0117,3.701,5.17,1111122 
DISL,ioos:station:DISL:MBLA:1,2019-01-04T23:00:00Z,30.4367,-88.0117,3.9,2.6,11111222 
DISL,ioos:station:DISL:MBLA:1,2019-01-04T23:30:00Z,30.4367,-88.0117,3.863,3.91,1111122 
DISL,ioos:station:DISL:MBLA:1,2019-01-05T00:00:00Z,30.4367,-88.0117,3.9,5.1,11111222 
DISL,ioos:station:DISL:MBLA:1,2019-01-05T00:30:00Z,30.4367,-88.0117,3.912,3.06,1111122 
DISL,ioos:station:DISL:MBLA:1,2019-01-05T01:00:00Z,30.4367,-88.0117,3.9,8.4,11111222 
DISL,ioos:station:DISL:MBLA:1,2019-01-05T01:30:00Z,30.4367,-88.0117,3.95,8.99,1111122 
DISL,ioos:station:DISL:MBLA:1,2019-01-05T02:00:00Z,30.4367,-88.0117,4.0,9.3,11111222 
DISL,ioos:station:DISL:MBLA:1,2019-01-05T02:30:00Z,30.4367,-88.0117,3.957,9.5,1111122 
DISL,ioos:station:DISL:MBLA:1,2019-01-05T03:00:00Z,30.4367,-88.0117,4.0,9.4,11111222 
DISL,ioos:station:DISL:MBLA:1,2019-01-05T03:30:00Z,30.4367,-88.0117,3.94,9.17,1111122 
DISL,ioos:station:DISL:MBLA:1,2019-01-05T04:00:00Z,30.4367,-88.0117,3.9,9.3,11111222 
DISL,ioos:station:DISL:MBLA:1,2019-01-05T04:30:00Z,30.4367,-88.0117,3.915,6.06,1111122 
DISL,ioos:station:DISL:MBLA:1,2019-01-05T05:00:00Z,30.4367,-88.0117,3.9,9.3,11111222 
DISL,ioos:station:DISL:MBLA:1,2019-01-05T05:30:00Z,30.4367,-88.0117,3.871,9.17,1111122 
DISL,ioos:station:DISL:MBLA:1,2019-01-05T06:00:00Z,30.4367,-88.0117,3.9,8.1,11111222 
DISL,ioos:station:DISL:MBLA:1,2019-01-05T06:30:00Z,30.4367,-88.0117,3.822,10.38,1111122 
DISL,ioos:station:DISL:MBLA:1,2019-01-05T07:00:00Z,30.4367,-88.0117,3.8,6.0,11111222 
DISL,ioos:station:DISL:MBLA:1,2019-01-05T07:30:00Z,30.4367,-88.0117,3.763,4.99,1111122 
DISL,ioos:station:DISL:MBLA:1,2019-01-05T08:00:00Z,30.4367,-88.0117,3.7,4.7,11111222 
DISL,ioos:station:DISL:MBLA:1,2019-01-05T08:30:00Z,30.4367,-88.0117,3.687,3.62,1111122 
DISL,ioos:station:DISL:MBLA:1,2019-01-05T09:00:00Z,30.4367,-88.0117,3.7,3.1,11111222 
DISL,ioos:station:DISL:MBLA:1,2019-01-05T09:30:00Z,30.4367,-88.0117,3.63,3.36,1111122 
DISL,ioos:station:DISL:MBLA:1,2019-01-05T10:00:00Z,30.4367,-88.0117,3.6,1.9,11111222 
DISL,ioos:station:DISL:MBLA:1,2019-01-05T10:30:00Z,30.4367,-88.0117,3.556,2.69,1111122 
DISL,ioos:station:DISL:MBLA:1,2019-01-05T11:00:00Z,30.4367,-88.0117,3.5,2.1,11111222 
DISL,ioos:station:DISL:MBLA:1,2019-01-05T11:30:00Z,30.4367,-88.0117,3.486,1.48,1111122 
DISL,ioos:station:DISL:MBLA:1,2019-01-05T12:00:00Z,30.4367,-88.0117,3.5,1.7,11111222 
DISL,ioos:station:DISL:MBLA:1,2019-01-05T12:30:00Z,30.4367,-88.0117,3.444,1.78,1111122 
DISL,ioos:station:DISL:MBLA:1,2019-01-05T13:00:00Z,30.4367,-88.0117,3.4,1.9,11111222 
DISL,ioos:station:DISL:MBLA:1,2019-01-05T13:30:00Z,30.4367,-88.0117,3.412,1.53,1111122 
DISL,ioos:station:DISL:MBLA:1,2019-01-05T14:00:00Z,30.4367,-88.0117,3.4,2.4,11111222 
DISL,ioos:station:DISL:MBLA:1,2019-01-05T14:30:00Z,30.4367,-88.0117,3.39,2.04,1111122 
DISL,ioos:station:DISL:MBLA:1,2019-01-05T15:00:00Z,30.4367,-88.0117,3.4,2.3,11111222 
DISL,ioos:station:DISL:MBLA:1,2019-01-05T15:30:00Z,30.4367,-88.0117,3.383,2.83,1111122 
DISL,ioos:station:DISL:MBLA:1,2019-01-05T16:00:00Z,30.4367,-88.0117,3.4,3.7,11111222 
DISL,ioos:station:DISL:MBLA:1,2019-01-05T16:30:00Z,30.4367,-88.0117,3.388,4.44,1111122 
DISL,ioos:station:DISL:MBLA:1,2019-01-05T17:00:00Z,30.4367,-88.0117,3.4,4.0,11111222 
DISL,ioos:station:DISL:MBLA:1,2019-01-05T17:30:00Z,30.4367,-88.0117,3.412,4.56,1111122 
DISL,ioos:station:DISL:MBLA:1,2019-01-05T18:00:00Z,30.4367,-88.0117,3.4,4.3,11111222 
DISL,ioos:station:DISL:MBLA:1,2019-01-05T18:30:00Z,30.4367,-88.0117,3.454,4.64,1111122 
DISL,ioos:station:DISL:MBLA:1,2019-01-05T19:00:00Z,30.4367,-88.0117,3.5,4.8,11111222 
DISL,ioos:station:DISL:MBLA:1,2019-01-05T19:30:00Z,30.4367,-88.0117,3.516,5.51,1111122 
DISL,ioos:station:DISL:MBLA:1,2019-01-05T20:00:00Z,30.4367,-88.0117,3.6,5.5,11111222 
DISL,ioos:station:DISL:MBLA:1,2019-01-05T20:30:00Z,30.4367,-88.0117,3.594,4.93,1111122 
DISL,ioos:station:DISL:MBLA:1,2019-01-05T21:00:00Z,30.4367,-88.0117,3.6,5.8,11111222 
DISL,ioos:station:DISL:MBLA:1,2019-01-05T21:30:00Z,30.4367,-88.0117,3.657,5.5,1111122 
DISL,ioos:station:DISL:MBLA:1,2019-01-05T22:00:00Z,30.4367,-88.0117,3.7,5.8,11111222 
DISL,ioos:station:DISL:MBLA:1,2019-01-05T22:30:00Z,30.4367,-88.0117,3.728,5.53,1111122 
DISL,ioos:station:DISL:MBLA:1,2019-01-05T23:00:00Z,30.4367,-88.0117,3.8,5.9,11111222 
DISL,ioos:station:DISL:MBLA:1,2019-01-05T23:30:00Z,30.4367,-88.0117,3.799,6.21,1111122 
DISL,ioos:station:DISL:MBLA:1,2019-01-06T00:00:00Z,30.4367,-88.0117,3.8,8.7,11111222 
DISL,ioos:station:DISL:MBLA:1,2019-01-06T00:30:00Z,30.4367,-88.0117,3.848,7.98,1111122 
DISL,ioos:station:DISL:MBLA:1,2019-01-06T01:00:00Z,30.4367,-88.0117,3.9,8.5,11111222 
DISL,ioos:station:DISL:MBLA:1,2019-01-06T01:30:00Z,30.4367,-88.0117,3.925,8.37,1111122 
DISL,ioos:station:DISL:MBLA:1,2019-01-06T02:00:00Z,30.4367,-88.0117,3.9,9.3,11111222 
DISL,ioos:station:DISL:MBLA:1,2019-01-06T02:30:00Z,30.4367,-88.0117,3.9,10.3,11111222 
DISL,ioos:station:DISL:MBLA:1,2019-01-06T03:00:00Z,30.4367,-88.0117,4.0,9.6,11111222 
DISL,ioos:station:DISL:MBLA:1,2019-01-06T03:30:00Z,30.4367,-88.0117,4.0,7.9,11111222 
DISL,ioos:station:DISL:MBLA:1,2019-01-06T04:00:00Z,30.4367,-88.0117,4.0,9.4,11111222 
DISL,ioos:station:DISL:MBLA:1,2019-01-06T04:30:00Z,30.4367,-88.0117,4.0,6.4,11111222 
DISL,ioos:station:DISL:MBLA:1,2019-01-06T05:00:00Z,30.4367,-88.0117,4.0,2.8,11111222 
DISL,ioos:station:DISL:MBLA:1,2019-01-06T05:30:00Z,30.4367,-88.0117,3.9,3.2,11111222 
DISL,ioos:station:DISL:MBLA:1,2019-01-06T06:00:00Z,30.4367,-88.0117,3.9,2.4,11111222 
DISL,ioos:station:DISL:MBLA:1,2019-01-06T06:30:00Z,30.4367,-88.0117,3.9,3.4,11111222 
DISL,ioos:station:DISL:MBLA:1,2019-01-06T07:00:00Z,30.4367,-88.0117,3.9,2.9,11111222 
DISL,ioos:station:DISL:MBLA:1,2019-01-06T07:30:00Z,30.4367,-88.0117,3.8,4.3,11111222 
DISL,ioos:station:DISL:MBLA:1,2019-01-06T08:00:00Z,30.4367,-88.0117,3.8,3.6,11111222 
DISL,ioos:station:DISL:MBLA:1,2019-01-06T08:30:00Z,30.4367,-88.0117,3.7,3.7,11111222 
DISL,ioos:station:DISL:MBLA:1,2019-01-06T09:00:00Z,30.4367,-88.0117,3.7,4.5,11111222 
DISL,ioos:station:DISL:MBLA:1,2019-01-06T09:30:00Z,30.4367,-88.0117,3.7,3.5,11111222 
DISL,ioos:station:DISL:MBLA:1,2019-01-06T10:00:00Z,30.4367,-88.0117,3.6,4.2,11111222 
DISL,ioos:station:DISL:MBLA:1,2019-01-06T10:30:00Z,30.4367,-88.0117,3.6,4.3,11111222 
DISL,ioos:station:DISL:MBLA:1,2019-01-06T11:00:00Z,30.4367,-88.0117,3.6,3.6,11111222 
DISL,ioos:station:DISL:MBLA:1,2019-01-06T11:30:00Z,30.4367,-88.0117,3.5,6.2,11111222 
DISL,ioos:station:DISL:MBLA:1,2019-01-06T12:00:00Z,30.4367,-88.0117,3.5,5.9,11111222 
DISL,ioos:station:DISL:MBLA:1,2019-01-06T12:30:00Z,30.4367,-88.0117,3.5,4.4,11111222 
DISL,ioos:station:DISL:MBLA:1,2019-01-06T13:00:00Z,30.4367,-88.0117,3.4,4.7,11111222 
DISL,ioos:station:DISL:MBLA:1,2019-01-06T13:30:00Z,30.4367,-88.0117,3.4,4.9,11111222 
DISL,ioos:station:DISL:MBLA:1,2019-01-06T14:00:00Z,30.4367,-88.0117,3.4,5.3,11111222 
DISL,ioos:station:DISL:MBLA:1,2019-01-06T14:30:00Z,30.4367,-88.0117,3.4,6.6,11111222 
DISL,ioos:station:DISL:MBLA:1,2019-01-06T15:00:00Z,30.4367,-88.0117,3.4,7.0,11111222 
DISL,ioos:station:DISL:MBLA:1,2019-01-06T15:30:00Z,30.4367,-88.0117,3.3,6.5,11111222 
DISL,ioos:station:DISL:MBLA:1,2019-01-06T16:00:00Z,30.4367,-88.0117,3.3,6.2,11111222 
DISL,ioos:station:DISL:MBLA:1,2019-01-06T16:30:00Z,30.4367,-88.0117,3.333,5.1,1111122 
DISL,ioos:station:DISL:MBLA:1,2019-01-06T17:00:00Z,30.4367,-88.0117,3.3,5.6,11111222 
DISL,ioos:station:DISL:MBLA:1,2019-01-06T17:30:00Z,30.4367,-88.0117,3.337,4.14,1111122 
DISL,ioos:station:DISL:MBLA:1,2019-01-06T18:00:00Z,30.4367,-88.0117,3.4,3.8,11111222 
DISL,ioos:station:DISL:MBLA:1,2019-01-06T18:30:00Z,30.4367,-88.0117,3.363,4.38,1111122 
DISL,ioos:station:DISL:MBLA:1,2019-01-06T19:00:00Z,30.4367,-88.0117,3.4,4.1,11111222 
DISL,ioos:station:DISL:MBLA:1,2019-01-06T19:30:00Z,30.4367,-88.0117,3.419,4.3,1111122 
DISL,ioos:station:DISL:MBLA:1,2019-01-06T20:00:00Z,30.4367,-88.0117,3.5,4.1,11111222 
DISL,ioos:station:DISL:MBLA:1,2019-01-06T20:30:00Z,30.4367,-88.0117,3.485,3.82,1111122 
DISL,ioos:station:DISL:MBLA:1,2019-01-06T21:00:00Z,30.4367,-88.0117,3.5,4.2,11111222 